Location: *
(55.6049°S, 142.1985°W)
Time: 04:19:22
(UTC+00:00)

Cosmos 676 Rocket - Pass Details

Date: 12 May 2021
Orbit: 754 x 784 km, 74.0° (Epoch: 23 June)

Event Time Altitude Azimuth Distance (km) Brightness Sun altitude
Rises 15:02:13 0° 343° (NNW) 3,281 7.2 -18.2°
Reaches altitude 10° 15:04:36 10° 345° (NNW) 2,359 6.4 -17.9°
Maximum altitude 15:09:57 70° 67° (ENE) 849 4.4 -17.1°
Drops below altitude 10° 15:15:20 10° 149° (SSE) 2,376 6.8 -16.4°
Sets 15:17:45 0° 151° (SSE) 3,307 7.6 -16.1°
